Radiation Dose at Monitoring Post of Fukushima Daini Nuclear Power Station
Date,Time,MP-1(microSv/h),MP-2(microSv/h),MP-3(microSv/h),MP-4(microSv/h),MP-5(microSv/h),MP-6(microSv/h),MP-7(microSv/h),Wind Direction,Wind Velocity(m/s),Rain
2020/01/12,00:00,0.181,0.161,0.275,0.256,0.253,0.139,0.085,west,13.1,No
2020/01/12,00:10,0.181,0.162,0.275,0.254,0.252,0.140,0.086,west-northwest,12.6,No
2020/01/12,00:20,0.181,0.163,0.273,0.255,0.252,0.139,0.086,west-northwest,12.9,No
2020/01/12,00:30,0.181,0.162,0.274,0.254,0.252,0.139,0.086,west-northwest,13.4,No
2020/01/12,00:40,0.181,0.162,0.274,0.255,0.252,0.140,0.086,west-northwest,15.4,No
2020/01/12,00:50,0.180,0.161,0.274,0.255,0.251,0.140,0.086,west-northwest,13.6,No
2020/01/12,01:00,0.182,0.162,0.275,0.255,0.252,0.139,0.085,west-northwest,12.0,No
2020/01/12,01:10,0.180,0.162,0.274,0.255,0.254,0.140,0.086,west-northwest,10.6,No
2020/01/12,01:20,0.180,0.161,0.275,0.254,0.253,0.139,0.086,west-northwest,8.5,No
2020/01/12,01:30,0.181,0.162,0.276,0.255,0.252,0.140,0.085,west,8.1,No
2020/01/12,01:40,0.181,0.163,0.274,0.255,0.253,0.139,0.086,west,10.3,No
2020/01/12,01:50,0.181,0.161,0.274,0.255,0.252,0.139,0.085,west,10.3,No
2020/01/12,02:00,0.180,0.162,0.274,0.254,0.254,0.140,0.085,west,9.0,No
2020/01/12,02:10,0.181,0.163,0.274,0.255,0.252,0.139,0.086,west,8.4,No
2020/01/12,02:20,0.182,0.163,0.274,0.256,0.252,0.139,0.085,west,8.6,No
2020/01/12,02:30,0.181,0.162,0.274,0.254,0.252,0.139,0.085,west-northwest,7.6,No
2020/01/12,02:40,0.181,0.162,0.274,0.255,0.252,0.139,0.085,west-northwest,7.9,No
2020/01/12,02:50,0.181,0.162,0.275,0.255,0.253,0.139,0.086,west-northwest,6.0,No
2020/01/12,03:00,0.181,0.162,0.273,0.255,0.252,0.139,0.086,northwest,5.5,No
2020/01/12,03:10,0.181,0.162,0.273,0.255,0.253,0.139,0.086,northwest,5.6,No
2020/01/12,03:20,0.180,0.162,0.275,0.254,0.251,0.140,0.085,west-northwest,4.8,No
2020/01/12,03:30,0.180,0.162,0.274,0.255,0.251,0.139,0.086,west-northwest,6.2,No
2020/01/12,03:40,0.181,0.162,0.273,0.255,0.253,0.140,0.085,west-northwest,6.0,No
2020/01/12,03:50,0.182,0.163,0.275,0.254,0.251,0.139,0.085,northwest,7.0,No
2020/01/12,04:00,0.180,0.162,0.274,0.255,0.252,0.139,0.086,northwest,6.2,No
2020/01/12,04:10,0.181,0.162,0.274,0.254,0.253,0.139,0.085,north-northwest,7.3,No
2020/01/12,04:20,0.182,0.162,0.275,0.256,0.252,0.139,0.085,north-northwest,7.6,No
2020/01/12,04:30,0.181,0.161,0.274,0.254,0.251,0.139,0.086,north-northwest,5.6,No
2020/01/12,04:40,0.182,0.162,0.275,0.255,0.253,0.139,0.085,north-northwest,7.3,No
2020/01/12,04:50,0.182,0.162,0.274,0.255,0.251,0.139,0.086,northwest,7.7,No
2020/01/12,05:00,0.181,0.162,0.273,0.255,0.252,0.139,0.085,northwest,9.2,No
2020/01/12,05:10,0.181,0.162,0.276,0.255,0.252,0.139,0.085,north-northwest,8.7,No
2020/01/12,05:20,0.180,0.161,0.274,0.255,0.251,0.140,0.087,north-northwest,9.2,No
2020/01/12,05:30,0.181,0.162,0.273,0.255,0.252,0.139,0.086,northwest,7.8,No
2020/01/12,05:40,0.182,0.162,0.274,0.255,0.253,0.139,0.086,northwest,7.5,No
2020/01/12,05:50,0.181,0.162,0.274,0.255,0.251,0.139,0.086,northwest,6.5,No
2020/01/12,06:00,0.181,0.161,0.274,0.255,0.253,0.139,0.085,northwest,5.0,No
2020/01/12,06:10,0.181,0.162,0.273,0.256,0.253,0.140,0.086,north-northwest,4.4,No
2020/01/12,06:20,0.181,0.162,0.274,0.255,0.252,0.139,0.086,north-northwest,2.6,No
2020/01/12,06:30,0.181,0.162,0.273,0.254,0.253,0.139,0.086,north,4.7,No
2020/01/12,06:40,0.181,0.162,0.274,0.255,0.252,0.139,0.086,north,3.9,No
2020/01/12,06:50,0.182,0.163,0.274,0.255,0.254,0.139,0.086,north,3.5,No
2020/01/12,07:00,0.181,0.162,0.274,0.254,0.252,0.140,0.086,north,4.2,No
2020/01/12,07:10,0.181,0.161,0.273,0.253,0.251,0.139,0.086,north,4.4,No
2020/01/12,07:20,0.181,0.163,0.274,0.256,0.254,0.139,0.086,north,4.3,No
2020/01/12,07:30,0.182,0.162,0.272,0.255,0.252,0.139,0.085,north,4.8,No
2020/01/12,07:40,0.181,0.161,0.273,0.255,0.253,0.140,0.085,north,4.3,No
2020/01/12,07:50,0.182,0.161,0.274,0.254,0.253,0.139,0.086,north,3.3,No
2020/01/12,08:00,0.180,0.162,0.273,0.255,0.252,0.139,0.085,north-northeast,3.4,No
2020/01/12,08:10,0.181,0.163,0.274,0.255,0.251,0.139,0.085,north-northeast,3.0,No
2020/01/12,08:20,0.180,0.162,0.276,0.254,0.252,0.140,0.086,north-northeast,3.0,No
2020/01/12,08:30,0.181,0.161,0.275,0.255,0.253,0.140,0.086,north,2.8,No
2020/01/12,08:40,0.182,0.163,0.274,0.255,0.253,0.140,0.086,north,2.4,No
2020/01/12,08:50,0.180,0.162,0.274,0.256,0.251,0.140,0.086,north-northwest,1.9,No
2020/01/12,09:00,0.180,0.161,0.274,0.255,0.254,0.139,0.085,north-northwest,1.3,No
2020/01/12,09:10,0.181,0.161,0.272,0.254,0.252,0.140,0.085,north-northeast,1.1,No
2020/01/12,09:20,0.182,0.162,0.273,0.255,0.252,0.138,0.085,northwest,1.2,No
2020/01/12,09:30,0.182,0.161,0.274,0.254,0.254,0.138,0.085,northeast,0.6,No
2020/01/12,09:40,0.182,0.161,0.274,0.254,0.253,0.140,0.086,east-northeast,1.4,No
2020/01/12,09:50,0.180,0.162,0.274,0.255,0.253,0.140,0.085,northeast,1.1,No
2020/01/12,10:00,0.180,0.161,0.274,0.253,0.252,0.140,0.085,northeast,1.6,No
2020/01/12,10:10,0.182,0.162,0.273,0.255,0.252,0.138,0.086,northeast,1.5,No
2020/01/12,10:20,0.180,0.162,0.273,0.255,0.252,0.139,0.086,east-northeast,0.9,No
2020/01/12,10:30,0.181,0.161,0.274,0.254,0.252,0.139,0.085,-,CALM,No
2020/01/12,10:40,0.181,0.161,0.273,0.255,0.252,0.140,0.086,east-southeast,1.3,No
2020/01/12,10:50,0.179,0.161,0.273,0.254,0.252,0.139,0.085,east,1.0,No
2020/01/12,11:00,0.181,0.160,0.274,0.255,0.252,0.139,0.086,east,0.8,No
2020/01/12,11:10,0.180,0.162,0.274,0.254,0.253,0.140,0.084,east,0.9,No
2020/01/12,11:20,0.181,0.161,0.274,0.254,0.251,0.139,0.086,east-southeast,1.1,No
2020/01/12,11:30,0.181,0.161,0.276,0.256,0.254,0.141,0.086,east,1.7,No
2020/01/12,11:40,0.180,0.162,0.272,0.255,0.253,0.140,0.086,east,1.2,No
2020/01/12,11:50,0.181,0.162,0.274,0.256,0.252,0.140,0.086,east,1.8,No
2020/01/12,12:00,0.180,0.162,0.273,0.255,0.252,0.139,0.086,east,1.2,No
2020/01/12,12:10,0.181,0.162,0.274,0.254,0.252,0.140,0.086,east,1.7,No
2020/01/12,12:20,0.180,0.162,0.274,0.255,0.254,0.139,0.085,east-southeast,1.8,No
2020/01/12,12:30,0.181,0.163,0.273,0.254,0.253,0.139,0.085,east,2.1,No
2020/01/12,12:40,0.181,0.162,0.274,0.255,0.254,0.140,0.086,east-southeast,1.9,No
2020/01/12,12:50,0.180,0.162,0.273,0.256,0.252,0.139,0.085,east-southeast,2.7,No
2020/01/12,13:00,0.180,0.162,0.273,0.254,0.252,0.139,0.086,east-southeast,2.6,No
2020/01/12,13:10,0.180,0.161,0.274,0.254,0.253,0.140,0.085,east,3.1,No
2020/01/12,13:20,0.181,0.162,0.273,0.255,0.253,0.140,0.085,east,2.7,No
2020/01/12,13:30,0.180,0.160,0.274,0.255,0.253,0.140,0.085,east,2.0,No
2020/01/12,13:40,0.181,0.162,0.275,0.254,0.253,0.139,0.085,east,2.4,No
2020/01/12,13:50,0.180,0.161,0.274,0.255,0.254,0.139,0.086,east-northeast,3.2,No
2020/01/12,14:00,0.180,0.162,0.274,0.255,0.251,0.140,0.086,east,2.3,No
2020/01/12,14:10,0.180,0.162,0.274,0.254,0.253,0.140,0.085,east,2.4,No
2020/01/12,14:20,0.182,0.161,0.274,0.257,0.254,0.140,0.086,east,2.3,No
2020/01/12,14:30,0.181,0.162,0.273,0.256,0.253,0.140,0.085,east,2.4,No
2020/01/12,14:40,0.180,0.162,0.273,0.254,0.254,0.139,0.085,east,2.0,No
2020/01/12,14:50,0.181,0.161,0.274,0.255,0.253,0.139,0.086,east,1.4,No
2020/01/12,15:00,0.181,0.162,0.273,0.255,0.254,0.140,0.085,east-southeast,1.4,No
2020/01/12,15:10,0.182,0.161,0.273,0.256,0.253,0.140,0.086,east,1.5,No
2020/01/12,15:20,0.180,0.162,0.275,0.256,0.251,0.140,0.085,east,1.3,No
2020/01/12,15:30,0.182,0.162,0.274,0.255,0.255,0.140,0.086,east-southeast,1.4,No
2020/01/12,15:40,0.182,0.161,0.273,0.257,0.252,0.140,0.086,east-southeast,1.4,No
2020/01/12,15:50,0.181,0.162,0.274,0.255,0.254,0.140,0.086,southeast,1.2,No
2020/01/12,16:00,0.180,0.162,0.273,0.254,0.253,0.140,0.086,south-southeast,1.0,No
2020/01/12,16:10,0.181,0.162,0.273,0.256,0.252,0.140,0.085,-,CALM,No
2020/01/12,16:20,0.181,0.162,0.275,0.256,0.254,0.139,0.085,-,CALM,No
2020/01/12,16:30,0.181,0.162,0.273,0.255,0.253,0.139,0.086,south,1.8,No
2020/01/12,16:40,0.181,0.160,0.274,0.255,0.252,0.140,0.085,south-southwest,1.4,No
2020/01/12,16:50,0.181,0.162,0.276,0.255,0.255,0.139,0.086,south-southwest,1.3,No
2020/01/12,17:00,0.180,0.161,0.274,0.254,0.253,0.139,0.086,southwest,1.7,No
2020/01/12,17:10,0.182,0.162,0.274,0.255,0.253,0.139,0.085,west-southwest,2.8,No
2020/01/12,17:20,0.181,0.161,0.274,0.256,0.254,0.141,0.086,west-southwest,2.8,No
2020/01/12,17:30,0.181,0.162,0.273,0.255,0.252,0.139,0.087,west-southwest,2.8,No
2020/01/12,17:40,0.182,0.162,0.274,0.255,0.252,0.139,0.086,west-southwest,3.5,No
2020/01/12,17:50,0.181,0.163,0.274,0.256,0.254,0.140,0.086,west-southwest,3.3,No
2020/01/12,18:00,0.181,0.163,0.274,0.256,0.252,0.141,0.086,west-southwest,3.2,No
2020/01/12,18:10,0.181,0.162,0.275,0.255,0.252,0.140,0.086,west-southwest,3.6,No
2020/01/12,18:20,0.182,0.162,0.274,0.256,0.254,0.140,0.085,west-southwest,3.3,No
2020/01/12,18:30,0.182,0.162,0.276,0.256,0.252,0.140,0.086,southwest,3.5,No
2020/01/12,18:40,0.180,0.162,0.274,0.255,0.252,0.140,0.086,southwest,3.4,No
2020/01/12,18:50,0.181,0.162,0.275,0.255,0.253,0.140,0.085,southwest,2.9,No
2020/01/12,19:00,0.181,0.162,0.275,0.257,0.253,0.140,0.086,southwest,2.8,No
2020/01/12,19:10,0.181,0.163,0.276,0.257,0.253,0.139,0.086,southwest,2.8,No
2020/01/12,19:20,0.183,0.162,0.275,0.255,0.253,0.140,0.086,southwest,2.4,No
2020/01/12,19:30,0.182,0.163,0.274,0.255,0.254,0.139,0.086,southwest,2.3,No
2020/01/12,19:40,0.182,0.163,0.274,0.256,0.252,0.140,0.086,southwest,2.7,No
2020/01/12,19:50,0.181,0.163,0.275,0.256,0.252,0.139,0.086,southwest,2.3,No
2020/01/12,20:00,0.182,0.162,0.275,0.256,0.254,0.139,0.087,southwest,2.1,No
2020/01/12,20:10,0.181,0.162,0.275,0.256,0.252,0.140,0.086,southwest,2.1,No
2020/01/12,20:20,0.181,0.162,0.274,0.257,0.253,0.140,0.086,southwest,2.3,No
2020/01/12,20:30,0.181,0.163,0.275,0.257,0.253,0.139,0.086,southwest,2.3,No
2020/01/12,20:40,0.181,0.162,0.275,0.255,0.253,0.140,0.086,south-southwest,2.2,No
2020/01/12,20:50,0.181,0.162,0.275,0.255,0.253,0.140,0.086,south-southwest,2.0,No
2020/01/12,21:00,0.182,0.162,0.275,0.256,0.252,0.140,0.086,south-southwest,1.8,No
2020/01/12,21:10,0.180,0.162,0.275,0.257,0.253,0.140,0.087,south-southwest,1.0,No
2020/01/12,21:20,0.182,0.163,0.274,0.255,0.253,0.140,0.086,southwest,1.2,No
2020/01/12,21:30,0.181,0.162,0.275,0.255,0.253,0.139,0.086,west-southwest,1.7,No
2020/01/12,21:40,0.181,0.162,0.275,0.256,0.252,0.140,0.086,west-southwest,1.8,No
2020/01/12,21:50,0.180,0.162,0.276,0.256,0.254,0.140,0.087,west-southwest,2.1,No
2020/01/12,22:00,0.182,0.162,0.275,0.256,0.254,0.140,0.086,west,2.5,No
2020/01/12,22:10,0.182,0.162,0.274,0.256,0.254,0.140,0.086,west,3.0,No
2020/01/12,22:20,0.181,0.163,0.275,0.255,0.253,0.140,0.087,west-southwest,3.3,No
2020/01/12,22:30,0.182,0.162,0.275,0.256,0.253,0.139,0.086,west-southwest,3.3,No
2020/01/12,22:40,0.182,0.163,0.274,0.255,0.253,0.140,0.086,west-southwest,3.5,No
2020/01/12,22:50,0.181,0.162,0.273,0.256,0.252,0.140,0.086,west-southwest,3.0,No
2020/01/12,23:00,0.181,0.162,0.274,0.255,0.252,0.140,0.086,west-southwest,2.9,No
2020/01/12,23:10,0.182,0.162,0.276,0.256,0.254,0.140,0.086,west,2.4,No
2020/01/12,23:20,0.181,0.162,0.275,0.256,0.253,0.140,0.086,west-southwest,2.3,No
2020/01/12,23:30,0.181,0.162,0.274,0.256,0.253,0.140,0.086,west-southwest,1.8,No
2020/01/12,23:40,0.181,0.162,0.274,0.257,0.253,0.140,0.086,west-southwest,2.3,No
2020/01/12,23:50,0.182,0.162,0.275,0.255,0.253,0.139,0.086,west-southwest,2.3,No
